TimeCDT,TemperatureF,Dew PointF,Humidity,Sea Level PressureIn,VisibilityMPH,Wind Direction,Wind SpeedMPH,Gust SpeedMPH,PrecipitationIn,Events,Conditions,WindDirDegrees,DateUTC
12:54 AM,46.9,39.9,77,30.27,10.0,East,8.1,-,N/A,,Clear,100,2013-04-22 05:54:00
1:54 AM,45.0,39.0,80,30.26,10.0,East,9.2,-,N/A,,Clear,100,2013-04-22 06:54:00
2:54 AM,44.1,37.9,79,30.24,10.0,East,4.6,-,N/A,,Clear,100,2013-04-22 07:54:00
3:54 AM,43.0,37.0,80,30.24,10.0,East,6.9,-,N/A,,Clear,100,2013-04-22 08:54:00
4:54 AM,42.1,36.0,79,30.23,10.0,East,8.1,-,N/A,,Clear,100,2013-04-22 09:54:00
5:54 AM,41.0,36.0,82,30.22,10.0,East,8.1,-,N/A,,Clear,100,2013-04-22 10:54:00
6:54 AM,42.1,37.0,82,30.23,10.0,East,5.8,-,N/A,,Clear,90,2013-04-22 11:54:00
7:54 AM,48.9,39.9,71,30.22,10.0,East,5.8,-,N/A,,Clear,100,2013-04-22 12:54:00
8:54 AM,54.0,37.9,55,30.22,10.0,SE,5.8,-,N/A,,Clear,130,2013-04-22 13:54:00
9:54 AM,59.0,37.0,44,30.20,10.0,SSE,6.9,-,N/A,,Clear,150,2013-04-22 14:54:00
10:54 AM,62.1,37.9,41,30.19,10.0,SSE,8.1,-,N/A,,Clear,150,2013-04-22 15:54:00
11:54 AM,66.0,39.9,38,30.17,10.0,SE,9.2,-,N/A,,Clear,140,2013-04-22 16:54:00
12:54 PM,68.0,41.0,37,30.14,10.0,South,9.2,-,N/A,,Clear,170,2013-04-22 17:54:00
1:54 PM,69.1,39.9,35,30.10,10.0,SSE,12.7,20.7,N/A,,Clear,160,2013-04-22 18:54:00
2:54 PM,70.0,39.0,32,30.07,10.0,SE,13.8,20.7,N/A,,Clear,130,2013-04-22 19:54:00
3:54 PM,69.1,41.0,36,30.03,10.0,SE,15.0,-,N/A,,Clear,140,2013-04-22 20:54:00
4:54 PM,70.0,41.0,35,30.00,10.0,SE,21.9,-,N/A,,Clear,140,2013-04-22 21:54:00
5:54 PM,69.1,42.1,38,29.98,10.0,SE,18.4,-,N/A,,Clear,140,2013-04-22 22:54:00
6:54 PM,66.9,42.1,40,29.97,10.0,SSE,12.7,24.2,N/A,,Clear,150,2013-04-22 23:54:00
7:54 PM,64.9,44.1,47,29.98,10.0,SE,12.7,-,N/A,,Clear,140,2013-04-23 00:54:00
8:54 PM,64.0,45.0,50,29.99,10.0,SSE,11.5,-,N/A,,Clear,150,2013-04-23 01:54:00
9:54 PM,63.0,46.0,54,30.01,10.0,SSE,10.4,-,0.00,,Overcast,150,2013-04-23 02:54:00
10:54 PM,62.1,46.0,56,30.00,10.0,SSE,11.5,-,N/A,,Scattered Clouds,160,2013-04-23 03:54:00
11:54 PM,59.0,46.9,64,30.01,10.0,SE,4.6,-,N/A,,Mostly Cloudy,140,2013-04-23 04:54:00